Location: Unspecified
(0.0000°N, 0.0000°E)
Time: 12:41:02
(UTC+00:00)

Vanguard 1 - Pass Details

Date: 08 December 2017
Orbit: 650 x 3833 km, 34.3° (Epoch: 17 June)

Event Time Altitude Azimuth Distance (km) Brightness Sun altitude
Rises 09:00:44 0° 249° (WSW) 7,902 14.4 42.6°
Reaches altitude 10° 09:06:33 10° 255° (WSW) 6,938 14.2 43.8°
Maximum altitude 09:28:01 45° 321° (NW) 4,045 13.3 48.3°
Drops below altitude 10° 09:43:01 10° 31° (NNE) 4,954 13.7 51.3°
Sets 09:46:25 0° 38° (NE) 5,581 13.9 51.9°
